EW4036 Weather Reports


Display with metric or nautical units.
time (UTC)temp
F
wind
direction
speed
MPH
gust
MPH
rain 1hr
in
rain 24hr
in
rain mn
in
humidity
%
barometer
mb
20260903223013 53 42 0.0 2.0 0.00 0.00 0.00 91 1002.0
20260903221605 53 93 0.0 2.0 0.00 0.00 0.00 92 1002.1
20260903220012 52 91 0.0 3.0 0.00 0.00 0.00 92 1002.1
20260903214508 52 93 1.0 3.0 0.00 0.00 0.00 92 1002.2
20260903213007 52 52 0.0 0.0 0.00 0.00 0.00 91 1002.5
20260903210110 53 78 0.0 2.0 0.00 0.00 0.00 90 1002.6
20260903204608 53 107 0.0 3.0 0.00 0.00 0.00 89 1002.7
20260903203024 53 102 0.0 2.0 0.00 0.00 0.00 89 1002.6
20260903201506 53 102 1.0 2.0 0.00 0.00 0.00 89 1002.6
20260903200008 53 104 1.0 3.0 0.00 0.00 0.00 88 1002.8
20260903194508 53 90 0.0 2.0 0.00 0.00 0.00 87 1002.9
20260903193108 54 42 0.0 1.0 0.00 0.00 0.00 85 1002.9
20260903191505 55 42 0.0 0.0 0.00 0.00 0.00 84 1002.9
20260903190006 56 42 0.0 0.0 0.00 0.00 0.00 81 1003.1
20260903184507 57 42 0.0 0.0 0.00 0.00 0.00 80 1003.1
20260903183009 57 42 1.0 3.0 0.00 0.00 0.00 79 1003.3
20260903181511 58 355 1.0 2.0 0.00 0.00 0.00 77 1003.4
20260903180018 59 311 0.0 1.0 0.00 0.00 0.00 75 1003.5
20260903174507 59 311 0.0 1.0 0.00 0.00 0.00 74 1003.5
20260903173009 60 311 0.0 1.0 0.00 0.00 0.00 74 1003.5
20260903171506 60 311 1.0 2.0 0.00 0.00 0.00 74 1003.6
20260903170016 60 293 0.0 2.0 0.00 0.00 0.00 73 1003.7
20260903164509 60 291 3.0 6.0 0.00 0.00 0.00 71 1003.7
20260903163013 60 301 2.0 5.0 0.00 0.00 0.00 71 1003.7
20260903161506 61 279 2.0 5.0 0.00 0.00 0.00 70 1003.9
20260903160008 61 327 3.0 5.0 0.00 0.00 0.00 69 1004.0
20260903154508 61 295 2.0 5.0 0.00 0.00 0.00 69 1004.1
20260903153011 62 303 3.0 7.0 0.00 0.00 0.00 65 1004.2
20260903151507 63 297 3.0 7.0 0.00 0.00 0.00 62 1004.3
20260903150012 63 313 4.0 9.0 0.00 0.00 0.00 61 1004.4
20260903144531 63 319 4.0 9.0 0.00 0.00 0.00 61 1004.5
20260903143010 63 269 5.0 10.0 0.00 0.00 0.00 60 1004.6
20260903141506 63 281 4.0 11.0 0.00 0.00 0.00 55 1004.8
20260903140007 64 281 6.0 11.0 0.00 0.00 0.00 54 1004.8
20260903134507 64 231 7.0 14.0 0.00 0.00 0.00 56 1004.9
20260903133009 64 267 5.0 10.0 0.00 0.00 0.00 55 1005.0
20260903131505 63 247 7.0 13.0 0.00 0.00 0.00 58 1005.2
20260903130010 63 263 7.0 13.0 0.00 0.00 0.00 55 1005.2
20260903124621 63 215 8.0 16.0 0.00 0.00 0.00 53 1005.5
20260903123107 62 242 10.0 16.0 0.00 0.00 0.00 57 1005.6
20260903121615 62 266 10.0 17.0 0.00 0.00 0.00 56 1005.6
20260903120022 62 205 5.0 16.0 0.00 0.00 0.00 62 1005.6
20260903114506 62 254 9.0 14.0 0.00 0.00 0.00 61 1005.7
20260903113004 61 246 10.0 14.0 0.00 0.00 0.00 62 1006.0
20260903111509 60 236 6.0 13.0 0.00 0.00 0.00 66 1006.2
20260903110008 59 238 8.0 14.0 0.00 0.00 0.00 66 1006.5
20260903104506 59 234 8.0 14.0 0.00 0.00 0.00 65 1006.5
20260903103006 58 231 8.0 14.0 0.00 0.00 0.00 69 1006.6
20260903101517 57 232 7.0 13.0 0.00 0.00 0.00 70 1006.8
20260903100020 57 229 9.0 16.0 0.00 0.00 0.00 68 1006.8
20260903094518 56 194 9.0 15.0 0.00 0.00 0.00 70 1006.8
20260903093107 57 216 9.0 15.0 0.00 0.00 0.00 69 1006.9
20260903091605 57 246 8.0 16.0 0.00 0.00 0.00 69 1007.0
20260903090008 57 247 10.0 14.0 0.00 0.00 0.00 71 1007.1
20260903084507 56 266 9.0 15.0 0.00 0.00 0.00 72 1007.3
20260903083008 55 252 11.0 16.0 0.00 0.00 0.00 74 1007.3
20260903081505 55 261 10.0 15.0 0.00 0.00 0.00 76 1007.3
20260903080006 54 227 9.0 18.0 0.00 0.00 0.00 76 1007.2
20260903074604 54 271 7.0 13.0 0.00 0.00 0.00 78 1007.4
20260903073006 54 224 11.0 19.0 0.00 0.00 0.00 78 1007.3
20260903071508 54 225 8.0 13.0 0.00 0.00 0.00 79 1007.3
20260903070012 53 236 7.0 12.0 0.00 0.00 0.00 80 1007.3
20260903064507 52 197 4.0 10.0 0.00 0.00 0.00 81 1007.5
20260903063011 51 214 7.0 11.0 0.00 0.00 0.00 82 1007.4
20260903061508 50 237 5.0 10.0 0.00 0.00 0.00 83 1007.6
20260903060005 50 200 7.0 11.0 0.00 0.00 0.00 84 1007.6
20260903054505 49 211 5.0 10.0 0.00 0.00 0.00 86 1007.5
20260903053016 48 190 6.0 12.0 0.00 0.00 0.00 87 1007.6
20260903051508 48 205 6.0 11.0 0.00 0.00 0.00 88 1007.5
20260903050011 47 209 6.0 12.0 0.00 0.00 0.00 89 1007.4
20260903044605 47 198 5.0 8.0 0.00 0.00 0.00 89 1007.5
20260903043208 47 184 5.0 10.0 0.00 0.00 0.00 89 1007.4
20260903041510 47 194 5.0 8.0 0.00 0.00 0.00 89 1007.6
20260903040015 47 203 6.0 8.0 0.00 0.00 0.00 89 1007.6
20260903034604 47 193 5.0 7.0 0.00 0.00 0.00 89 1007.6
20260903033015 47 197 6.0 8.0 0.00 0.00 0.00 90 1007.3
20260903031510 48 212 6.0 11.0 0.00 0.00 0.00 90 1007.3
20260903030010 48 195 7.0 12.0 0.00 0.00 0.00 90 1007.2
20260903024507 49 202 6.0 10.0 0.00 0.00 0.00 90 1007.4
20260903023010 49 204 6.0 13.0 0.00 0.00 0.00 90 1007.5
20260903021513 49 187 6.0 10.0 0.00 0.00 0.00 91 1007.6
20260903020012 49 217 6.0 9.0 0.00 0.00 0.00 91 1007.7
20260903014505 49 168 6.0 11.0 0.00 0.00 0.00 91 1007.7
20260903013008 49 227 5.0 10.0 0.00 0.00 0.00 91 1007.8
20260903011514 49 206 5.0 10.0 0.00 0.00 0.00 90 1007.7
20260903010106 50 200 7.0 10.0 0.00 0.00 0.00 90 1007.7
20260903004607 50 207 7.0 10.0 0.00 0.00 0.00 90 1007.8
20260903003104 50 205 6.0 10.0 0.00 0.00 0.00 90 1007.8
20260903001504 50 217 7.0 13.0 0.00 0.00 0.00 89 1007.8
20260903000106 50 218 6.0 12.0 0.00 0.00 0.00 89 1007.7
20260902234505 51 213 6.0 12.0 0.00 0.00 0.00 89 1007.6
20260902233007 51 183 8.0 12.0 0.00 0.00 0.00 89 1007.8
20260902231505 51 203 9.0 14.0 0.00 0.00 0.00 89 1007.9
20260902230010 51 210 6.0 13.0 0.00 0.00 0.00 88 1007.9
20260902224613 51 197 8.0 14.0 0.00 0.00 0.00 88 1008.0